weather.gov     
National Weather Service

Regional Weather Roundup
NWS Homepage
This page is being discontinued on March 12, 2014.
The same data is available at this site. Please update your bookmarks.
Thank you, and we apologize for the inconvenience.
Please send an email to SR-SRH.Webmaster@noaa.gov with any concerns.


Current Version
Previous Version:    01  02  03  04  05  06  07  08  09  10  11  12  13  14  15  16  17  18  19  20  21  22  23  24  25  26  27  28  29  30  
   31  32  33  34  35  36  37  38  39  40  41  42  43  44  45  46  47  48  49  50  51  52  53  54  55  56  57  58  59  60  
[Printable]
554
ASUS42 KRAH 221010
RWRRAH
NORTH CAROLINA WEATHER ROUNDUP
NATIONAL WEATHER SERVICE RALEIGH NC
600 AM EDT MON SEP 22 2014

NOTE: "FAIR" INDICATES FEW OR NO CLOUDS BELOW 12,000 FEET WITH NO
SIGNIFICANT WEATHER AND/OR OBSTRUCTIONS TO VISIBILITY.

NCZ001-053-055-056-065-067-221100-
WESTERN NORTH CAROLINA

CITY           SKY/WX    TMP DP  RH WIND       PRES   REMARKS
ASHEVILLE      CLEAR     56  49  77 CALM      30.06R
JEFFERSON      CLEAR     53  43  68 NW3       30.06R
HICKORY        CLEAR     59  50  72 CALM      30.01R
RUTHERFORDTON  NOT AVBL
MOUNT AIRY     CLEAR     59  51  76 NW5       30.02R
$$

NCZ021-022-025-041-071-084-088-221100-
CENTRAL NORTH CAROLINA

CITY           SKY/WX    TMP DP  RH WIND       PRES   REMARKS
CHARLOTTE      PTCLDY    66  53  63 N7        29.99R
GREENSBORO     PTCLDY    62  51  67 NW6       29.98R
WINSTON-SALEM  CLEAR     59  51  75 NW5       30.00R
RALEIGH-DURHAM MOCLDY    67  57  70 CALM      29.95R
FORT BRAGG     MOCLDY    73  63  71 N9        29.94R
FAYETTEVILLE   MOCLDY    74  65  73 NW5       29.93R
$$

NCZ011-015-027-028-043-044-047-080-103-221100-
NORTHEASTERN NORTH CAROLINA

CITY           SKY/WX    TMP DP  RH WIND       PRES   REMARKS
ROANOKE RAPIDS FAIR      68  57  68 CALM      29.91R
ROCKY MT-WILSO CLOUDY    70  61  73 NW6       29.92R
GREENVILLE     PTCLDY    70  66  88 CALM      29.93R
WASHINGTON     PTCLDY    69  66  91 CALM      29.91R
ELIZABETH CITY NOT AVBL
MANTEO         CLOUDY    73  66  81 W5        29.89R
CAPE HATTERAS  MOCLDY    74  71  91 W9        29.90R
$$

NCZ078-087-090-091-093-098-101-221100-
SOUTHEASTERN NORTH CAROLINA

CITY           SKY/WX    TMP DP  RH WIND       PRES   REMARKS
LUMBERTON      CLOUDY    71  67  87 W5        29.93R
GOLDSBORO      PTCLDY    71  70  96 CALM      29.91R
KINSTON        PTCLDY    71  66  84 CALM      29.93R
KENANSVILLE    PTCLDY    72  64  77 W5        29.93R
NEW BERN       CLOUDY    73  65  75 W6        29.92R
BEAUFORT       PTCLDY    77  67  71 W12       29.91R
JACKSONVILLE   MOCLDY    69  65  86 W6        29.91R
WILMINGTON     MOCLDY    73  64  73 W10       29.93R
$$





U.S. Dept. of Commerce
NOAA National Weather Service
1325 East West Highway
Silver Spring, MD 20910
E-mail: w-nws.webmaster@noaa.gov
Page last modified: May 16, 2007
NATIONAL WEATHER SERVICE: for Safety, for Work, for Fun - FOR LIFE